{"data":{"norad_id":45157,"intl_designator":"2020-008AC","name":"ONEWEB-0053","alt_names":[],"object_type":"PAYLOAD","status":"ACTIVE","operator":null,"country":"UK","launch_date":"2020-02-06","launch_site_code":"TYMSC","launch_vehicle":null,"mission":null,"orbit_class":"UNKNOWN","rcs_meters":null,"size_class":null,"mass_kg":null,"dimensions":null,"purposes":["comms"],"wikipedia_slug":null,"has_3d_model":false,"image_url":null,"decayed_at":null,"tle_current":{"epoch":"2026-05-25T03:22:28.381728Z","epoch_age_seconds":58965,"freshness":"FRESH","line1":"1 45157U 20008AC  26145.14060627  .00000041  00000+0  80290-4 0  9993","line2":"2 45157  87.8855  40.8727 0002343  81.0178 279.1214 13.10377312304898","mean_motion":13.10377312,"eccentricity":0.0002343,"inclination_deg":87.8855,"raan_deg":40.8727,"arg_perigee_deg":81.0178,"mean_anomaly_deg":279.1214,"bstar":8.029e-5,"rev_number":30489,"period_min":109.89201253814,"perigee_km":1219.9191291098,"apogee_km":1223.4804126206,"semimajor_km":7599.8367708652,"source":"CELESTRAK","updated_at":"2026-05-25T13:38:22.338835Z"}}}